Location: Gleizolles
(44.4833°N, 6.7667°E)
Time: 01:29:59
(UTC+00:00)

BREEZE-M DEB (TANK) - Pass Details

Date: 09 April 2020
Orbit: 320 x 11934 km, 49.7° (Epoch: 05 June)

Event Time Altitude Azimuth Distance (km) Brightness Sun altitude
Rises 18:21:31 0° 285° (WNW) 6,742 12.6 -2.7°
Reaches altitude 10° 18:27:46 10° 290° (WNW) 4,181 9.9 -3.8°
Maximum altitude 18:36:02 56° 8° (N) 844 4.4 -5.2°
Drops below altitude 10° 18:39:08 10° 89° (E) 1,598 5.2 -5.7°
Enters shadow 18:39:33 - 91° (E) 1,791 5.4 -5.8°
